This is the latest recevied weather packets stored in our database for station/object K5FEP. If no packets are shown the sender has not sent any weather packets the latest 10 day(s).
| Time | Temp. | Humidity | Pressure | Rain* | Wind** | Luminosity | Snow |
|---|---|---|---|---|---|---|---|
| 1777417878 | 17.22° C | 78% | 1015.4 hPa | 0 mm | - | 67 W/m² | - |
| 1777417575 | 17.22° C | 77% | 1015.7 hPa | 0 mm | - | 69 W/m² | - |
| 1777417270 | 17.22° C | 78% | 1016 hPa | 0 mm | - | 73 W/m² | - |
| 1777416967 | 17.22° C | 78% | 1016.3 hPa | 0 mm | - | 47 W/m² | - |
| 1777416667 | 17.22° C | 77% | 1016 hPa | 0 mm | - | 45 W/m² | - |
| 1777416363 | 17.22° C | 77% | 1016.1 hPa | 0 mm | - | 69 W/m² | - |
| 1777416062 | 17.22° C | 78% | 1016.4 hPa | 0 mm | - | 70 W/m² | - |
| 1777415758 | 17.22° C | 77% | 1016.5 hPa | 0 mm | - | 50 W/m² | - |
| 1777415454 | 17.78° C | 76% | 1016.5 hPa | 0 mm | - | 41 W/m² | - |
| 1777415150 | 17.78° C | 75% | 1016.3 hPa | 0 mm | - | 101 W/m² | - |
| 1777414845 | 17.78° C | 74% | 1016.5 hPa | 0 mm | - | 58 W/m² | - |
| 1777414545 | 17.78° C | 74% | 1016.4 hPa | 0 mm | - | 106 W/m² | - |
| 1777414245 | 17.78° C | 75% | 1016.6 hPa | 0 mm | - | 131 W/m² | - |
| 1777413940 | 17.78° C | 74% | 1016.3 hPa | 0 mm | - | 135 W/m² | - |
| 1777413635 | 17.78° C | 74% | 1016.5 hPa | 0 mm | - | 133 W/m² | - |
| 1777413332 | 18.33° C | 74% | 1016.5 hPa | 0 mm | - | 167 W/m² | - |
| 1777413028 | 17.78° C | 75% | 1016.6 hPa | 0 mm | - | 185 W/m² | - |
| 1777412728 | 17.78° C | 75% | 1016.4 hPa | 0 mm | - | 229 W/m² | - |
| 1777412426 | 17.78° C | 74% | 1016.5 hPa | 0 mm | - | 189 W/m² | - |
| 1777412125 | 17.78° C | 75% | 1016.5 hPa | 0 mm | - | 203 W/m² | - |
| 1777411821 | 17.78° C | 74% | 1016.4 hPa | 0 mm | - | 192 W/m² | - |
| 1777411520 | 17.22° C | 75% | 1016.4 hPa | 0 mm | - | 190 W/m² | - |
| 1777411215 | 17.78° C | 74% | 1016.5 hPa | 0 mm | - | 115 W/m² | - |
| 1777410915 | 17.78° C | 73% | 1016.4 hPa | 0 mm | - | 121 W/m² | - |
| 1777410614 | 17.78° C | 74% | 1016.5 hPa | 0 mm | - | 152 W/m² | - |
* Rain latest hour (hover to see other rain measurements)
** Current wind speed in m/s (hover to see current wind gust speed)